Weather in Satino

Russia / Tambov Oblast     52°06′45″N   42°36′40″E
temp.,
°C
wind,
m/s
gust,
m/s
humid.,
%
clouds,
%
prec.,
mm/h
press.,
hPa
HPBL,
m
28 february, sun
sun2800:00−9nnw499496 0.0 1012402
03:00−11nw369560 0.0 1013172
06:00−11nw36950 0.0 1014154
09:00−10nw46928 0.0 1015321
12:00−8nw358880 0.0 1016515
15:00−6nw358990 0.1 1016614
18:00−7nw2495100 0.1 1017170
21:00−8n2496100 0.1 1019114
1 march, mon
mon100:00−10nne249593 0.0 102185
03:00−12n239451 0.0 102231
06:00−12n23940 0.0 102337
09:00−11nnw12920 0.0 1026123
12:00−7nw238852 0.0 1026369
15:00−5w358876 0.1 1026534
18:00−5w3688100 0.0 1025252
21:00−7wsw489498 0.1 1024169
2 march, tue
tue200:00−4sw51191100 0.0 1022404
03:00−3wsw61391100 0.0 1018453
06:00−2wsw81496100 0.4 1014544
09:000wsw81597100 1.1 1011822
12:00+1w81399100 0.9 1008683
15:00+1wnw61295100 1.6 1007668
18:00−1nw6129399 0.1 1008479
21:00−2wnw6129386 0.1 1009434
3 march, wed
wed300:00−3wnw5129497 0.0 1009398
03:00−2nw6108995 0.1 1010648
06:00−3nw51094100 0.1 1010625
09:00−3nw6119095 0.2 1012693
12:00−3nw71085100 0.1 1014953
15:00−3nw81182100 0.2 10151026
18:00−4nw5119197 0.1 1016413
21:00−5nw5129194 0.2 1018377
4 march, thu
thu400:00−7nw489415 0.0 1019178
03:00−8wnw36957 0.0 1020123
06:00−7w369652 0.0 1020128
09:00−5wsw499226 0.0 1020328
12:00−1wsw6118621 0.0 1018599
15:000wsw6128525 0.0 1016676
18:00−2sw5138543 0.0 1014335
21:00−1sw6158546 0.0 1013432